MST,Max TemperatureF,Mean TemperatureF,Min TemperatureF,Max Dew PointF,MeanDew PointF,Min DewpointF,Max Humidity, Mean Humidity, Min Humidity, Max Sea Level PressureIn, Mean Sea Level PressureIn, Min Sea Level PressureIn, Max VisibilityMiles, Mean VisibilityMiles, Min VisibilityMiles, Max Wind SpeedMPH, Mean Wind SpeedMPH, Max Gust SpeedMPH,PrecipitationIn, CloudCover, Events, WindDirDegrees
2013-11-1,53,42,31,31,27,24,75,57,38,30.19,30.14,30.03,10,10,10,23,13,30,0.00,1,,231
2013-11-2,60,45,30,34,29,23,78,54,30,30.11,29.77,29.55,10,10,10,24,12,30,T,4,Rain,208
2013-11-3,41,33,25,28,24,18,92,69,45,30.07,29.84,29.62,10,6,1,23,12,29,0.01,7,Snow,301
2013-11-4,29,23,17,25,21,15,100,85,69,30.21,30.11,29.95,10,10,3,9,3,12,T,6,Snow,164
2013-11-5,40,30,19,25,18,14,91,63,34,30.19,30.12,29.96,10,10,10,24,14,31,0.00,0,,220
2013-11-6,49,38,27,28,22,17,85,58,31,30.39,30.23,29.98,10,10,10,25,10,30,T,4,,256
2013-11-7,53,39,24,39,30,19,81,64,46,30.34,30.00,29.64,10,10,10,25,12,32,T,5,Rain,197
2013-11-8,49,41,32,28,26,23,70,58,45,30.13,29.88,29.68,10,10,10,26,15,32,0.00,4,,229
2013-11-9,47,36,25,27,22,20,92,63,34,30.24,30.20,30.15,10,10,10,17,8,23,0.00,3,,223
2013-11-10,39,31,22,25,22,20,96,73,50,30.46,30.29,30.14,10,8,1,13,7,16,0.02,8,Snow,45
2013-11-11,38,29,20,28,22,19,100,85,70,30.56,30.50,30.30,10,9,2,12,5,14,0.02,4,Snow,83
2013-11-12,65,44,23,32,28,25,89,57,24,30.45,30.27,30.14,10,10,10,24,15,30,0.00,0,,212
2013-11-13,56,45,34,35,28,22,70,49,27,30.18,30.13,30.08,10,10,10,31,15,38,0.00,1,,238
2013-11-14,46,39,31,26,25,22,69,57,45,30.09,29.92,29.69,10,10,10,21,14,25,0.00,1,,225
2013-11-15,47,39,31,23,21,19,64,51,37,29.68,29.51,29.31,10,10,10,30,19,37,T,2,Snow,226
2013-11-16,44,31,17,29,20,12,88,66,43,29.69,29.40,29.24,10,7,0,29,12,37,0.13,8,Fog-Snow,264
2013-11-17,38,20,2,23,13,0,92,72,52,30.02,29.85,29.59,10,8,1,31,9,38,0.00,3,,242
2013-11-18,50,43,36,22,21,19,56,44,31,29.92,29.84,29.70,10,10,10,28,16,35,0.00,1,,205
2013-11-19,56,33,9,29,18,3,84,59,34,29.94,29.66,29.48,10,10,3,37,18,44,T,3,Snow,270
2013-11-20,10,5,-1,2,-1,-6,83,73,63,30.56,30.28,29.95,10,8,2,18,9,22,T,5,Snow,306
2013-11-21,31,13,-5,6,1,-7,86,57,27,30.66,30.60,30.55,10,10,10,23,13,29,0.00,0,,220
2013-11-22,40,29,17,9,5,3,62,42,22,30.70,30.64,30.53,10,10,10,18,11,24,0.00,0,,211
2013-11-23,48,34,19,13,11,9,62,43,23,30.63,30.41,30.12,10,10,10,23,14,28,0.00,0,,203
2013-11-24,54,38,21,23,15,12,84,52,19,30.36,30.14,30.05,10,10,10,23,14,30,0.00,1,,232
2013-11-25,45,30,15,25,20,14,92,66,40,30.47,30.42,30.35,10,10,7,8,3,8,0.00,1,,127
2013-11-26,56,36,16,25,21,16,84,56,27,30.44,30.25,30.01,10,10,10,22,10,26,0.00,0,,204
2013-11-27,50,35,19,23,20,17,92,62,32,30.24,30.15,29.99,10,10,10,22,5,28,0.00,0,,40
2013-11-28,53,35,16,27,19,15,92,60,28,30.20,30.11,30.03,10,10,10,21,9,25,0.00,0,,222
2013-11-29,54,45,35,30,22,20,60,44,28,30.12,30.06,30.00,10,10,10,26,14,33,T,2,Rain,226
2013-11-30,50,41,32,30,29,27,75,59,42,30.16,30.11,30.06,10,10,10,25,14,30,0.00,2,,227